Retour au catalogue

USA 290

ActifNavigationVLEO
NORAD 43941·PAYLOAD·🇺🇸 United States

Lancé Jan 19, 2019 depuis Vandenberg Space Force Base

Loading…

Prochains Passages (prochaines 24 heures)

TLE

PériméSource: Mike McCants

Époque: Aug 11, 2026, 03:06 UTC

1 43941U 19004A   26223.12917621 0.00008000  00000-0  12666-3 0    04
2 43941  73.5475 344.6601 0018900 127.1473 232.8526 15.53092134    02

Suivez USA 290 en temps réel avec AllMySat

Download on the App Store